• In Netherlands
  • List of Countries
  • For 7 days
  • Water Temperature
  • Satellite Maps
  • Weather Map
  • Weather Widgets
  • user-avatar
    Login

    Hourly Weather Namyur

    Today, 23 November, Thursday

    Time Temperature Precipitation Wind Pressure Humidity
    00:00 +9°C° 0 mm 7 mps 741 mmHg 67%
    01:00 +9°C° 0 mm 8 mps 741 mmHg 67%
    02:00 +9°C° 0 mm 8 mps 741 mmHg 68%
    03:00 +9°C° 0 mm 8 mps 740 mmHg 68%
    04:00 +8°C° 0 mm 9 mps 740 mmHg 67%
    05:00 +8°C° 0 mm 9 mps 740 mmHg 66%
    06:00 +10°C° 0 mm 9 mps 740 mmHg 65%
    07:00 +9°C° 0 mm 10 mps 740 mmHg 65%
    08:00 +11°C° 0 mm 10 mps 740 mmHg 64%
    09:00 +12°C° 0 mm 11 mps 740 mmHg 64%
    10:00 +12°C° 0.1 mm 10 mps 741 mmHg 66%
    11:00 +13°C° 0.1 mm 10 mps 741 mmHg 68%
    12:00 +13°C° 0.1 mm 10 mps 742 mmHg 71%
    13:00 +13°C° 0.4 mm 9 mps 742 mmHg 75%
    14:00 +12°C° 0.4 mm 7 mps 743 mmHg 79%
    15:00 +11°C° 0.4 mm 6 mps 744 mmHg 83%
    16:00 +12°C° 0.2 mm 5 mps 744 mmHg 85%
    17:00 +11°C° 0.2 mm 4 mps 745 mmHg 86%
    18:00 +10°C° 0.2 mm 4 mps 746 mmHg 88%
    19:00 +10°C° 0.1 mm 3 mps 746 mmHg 88%
    20:00 +10°C° 0.1 mm 3 mps 747 mmHg 88%
    21:00 +10°C° 0.1 mm 3 mps 747 mmHg 88%
    22:00 +9°C° 0 mm 3 mps 747 mmHg 89%
    23:00 +9°C° 0 mm 3 mps 747 mmHg 90%

    Tomorrow, 24 November, Friday

    Time Temperature Precipitation Wind Pressure Humidity
    00:00 +9°C° 0 mm 3 mps 746 mmHg 92%
    01:00 +10°C° 0.3 mm 4 mps 746 mmHg 90%
    02:00 +10°C° 0.3 mm 6 mps 745 mmHg 89%
    03:00 +11°C° 0.3 mm 7 mps 744 mmHg 88%
    04:00 +11°C° 0.4 mm 8 mps 744 mmHg 87%
    05:00 +11°C° 0.4 mm 8 mps 744 mmHg 86%
    06:00 +11°C° 0.4 mm 8 mps 743 mmHg 85%
    07:00 +11°C° 0.2 mm 8 mps 744 mmHg 85%
    08:00 +11°C° 0.2 mm 8 mps 744 mmHg 85%
    09:00 +11°C° 0.2 mm 8 mps 745 mmHg 84%
    10:00 +10°C° 0.4 mm 7 mps 745 mmHg 84%
    11:00 +9°C° 0.4 mm 6 mps 746 mmHg 84%
    12:00 +8°C° 0.4 mm 5 mps 747 mmHg 84%
    13:00 +7°C° 0.1 mm 4 mps 747 mmHg 84%
    14:00 +7°C° 0.1 mm 4 mps 748 mmHg 83%
    15:00 +7°C° 0.1 mm 3 mps 749 mmHg 83%
    16:00 +7°C° 0 mm 2 mps 750 mmHg 84%
    17:00 +6°C° 0 mm 2 mps 750 mmHg 85%
    18:00 +6°C° 0 mm 2 mps 751 mmHg 86%
    19:00 +6°C° 0 mm 1 mps 751 mmHg 86%
    20:00 +6°C° 0 mm 1 mps 751 mmHg 86%
    21:00 +6°C° 0 mm 1 mps 751 mmHg 86%
    22:00 +6°C° 0 mm 1 mps 751 mmHg 86%
    23:00 +5°C° 0 mm 1 mps 751 mmHg 86%

    Day after tomorrow, 25 November, Saturday

    Time Temperature Precipitation Wind Pressure Humidity
    00:00 +4°C° 0 mm 0 mps 751 mmHg 86%
    01:00 +4°C° 0 mm 0 mps 751 mmHg 86%
    02:00 +4°C° 0 mm 0 mps 750 mmHg 86%
    03:00 +4°C° 0 mm 0 mps 750 mmHg 86%
    04:00 +3°C° 0 mm 0 mps 750 mmHg 87%
    05:00 +3°C° 0 mm 0 mps 750 mmHg 88%
    06:00 +3°C° 0 mm 0 mps 749 mmHg 89%
    07:00 +4°C° 0 mm 1 mps 750 mmHg 87%
    08:00 +5°C° 0 mm 1 mps 750 mmHg 85%
    09:00 +5°C° 0 mm 1 mps 750 mmHg 84%
    10:00 +4°C° 0.4 mm 2 mps 750 mmHg 82%
    11:00 +4°C° 0.4 mm 3 mps 750 mmHg 81%
    12:00 +4°C° 0.4 mm 4 mps 750 mmHg 80%
    13:00 +4°C° 0.4 mm 4 mps 750 mmHg 80%
    14:00 +3°C° 0.4 mm 4 mps 751 mmHg 80%
    15:00 +3°C° 0.4 mm 4 mps 751 mmHg 80%
    16:00 +1°C° 0.1 mm 4 mps 751 mmHg 81%
    17:00 +1°C° 0.1 mm 4 mps 752 mmHg 82%
    18:00 0°C° 0.1 mm 4 mps 753 mmHg 83%
    19:00 0°C° 0 mm 4 mps 753 mmHg 84%
    20:00 -1°C° 0 mm 4 mps 754 mmHg 84%
    21:00 -1°C° 0 mm 4 mps 755 mmHg 85%
    22:00 -1°C° 0 mm 4 mps 755 mmHg 86%
    23:00 -1°C° 0 mm 4 mps 755 mmHg 86%

    26 November, Sunday

    Time Temperature Precipitation Wind Pressure Humidity
    00:00 -1°C° 0 mm 4 mps 755 mmHg 86%
    01:00 -1°C° 0 mm 4 mps 755 mmHg 87%
    02:00 -1°C° 0 mm 4 mps 755 mmHg 87%
    03:00 -2°C° 0 mm 4 mps 755 mmHg 88%
    04:00 -2°C° 0 mm 4 mps 755 mmHg 88%
    05:00 -2°C° 0 mm 4 mps 756 mmHg 88%
    06:00 -2°C° 0 mm 4 mps 756 mmHg 88%
    07:00 -1°C° 0 mm 4 mps 756 mmHg 85%
    08:00 0°C° 0 mm 4 mps 756 mmHg 83%
    09:00 0°C° 0 mm 5 mps 757 mmHg 80%
    10:00 +1°C° 0 mm 5 mps 757 mmHg 77%
    11:00 +2°C° 0 mm 5 mps 757 mmHg 74%
    12:00 +3°C° 0 mm 6 mps 757 mmHg 70%
    13:00 +3°C° 0 mm 5 mps 757 mmHg 73%
    14:00 +4°C° 0 mm 4 mps 757 mmHg 75%
    15:00 +3°C° 0 mm 4 mps 757 mmHg 78%
    16:00 +3°C° 0 mm 4 mps 757 mmHg 81%
    17:00 +1°C° 0 mm 4 mps 757 mmHg 84%
    18:00 0°C° 0 mm 4 mps 757 mmHg 87%
    19:00 0°C° 0 mm 4 mps 757 mmHg 88%
    20:00 0°C° 0 mm 4 mps 757 mmHg 89%
    21:00 0°C° 0 mm 4 mps 758 mmHg 89%
    22:00 0°C° 0 mm 4 mps 757 mmHg 90%
    23:00 0°C° 0 mm 4 mps 757 mmHg 90%

    27 November, Monday

    Time Temperature Precipitation Wind Pressure Humidity
    00:00 0°C° 0 mm 4 mps 757 mmHg 90%
    01:00 0°C° 0 mm 4 mps 757 mmHg 91%
    02:00 0°C° 0 mm 4 mps 757 mmHg 91%
    03:00 -1°C° 0 mm 4 mps 757 mmHg 91%
    04:00 -1°C° 0 mm 4 mps 757 mmHg 92%
    05:00 0°C° 0 mm 3 mps 757 mmHg 92%
    06:00 0°C° 0 mm 3 mps 757 mmHg 92%
    07:00 0°C° 0 mm 4 mps 757 mmHg 90%
    08:00 0°C° 0 mm 4 mps 757 mmHg 87%
    09:00 +1°C° 0 mm 5 mps 756 mmHg 84%
    10:00 +2°C° 0 mm 6 mps 756 mmHg 82%
    11:00 +3°C° 0 mm 6 mps 755 mmHg 79%
    12:00 +4°C° 0 mm 7 mps 754 mmHg 76%
    13:00 +4°C° 0.5 mm 7 mps 753 mmHg 80%
    14:00 +2°C° 0.5 mm 8 mps 753 mmHg 83%
    15:00 +2°C° 0.5 mm 8 mps 752 mmHg 86%
    16:00 +2°C° 0.8 mm 8 mps 752 mmHg 87%
    17:00 +4°C° 0.8 mm 7 mps 751 mmHg 89%
    18:00 +4°C° 0.8 mm 7 mps 751 mmHg 90%
    19:00 +4°C° 0.1 mm 6 mps 751 mmHg 90%
    20:00 +3°C° 0.1 mm 6 mps 751 mmHg 90%
    21:00 +3°C° 0.1 mm 5 mps 751 mmHg 90%
    22:00 +3°C° 0 mm 5 mps 750 mmHg 91%
    23:00 +3°C° 0 mm 5 mps 750 mmHg 92%

    28 November, Tuesday

    Time Temperature Precipitation Wind Pressure Humidity
    00:00 +3°C° 0 mm 5 mps 750 mmHg 92%
    01:00 +3°C° 0.2 mm 5 mps 749 mmHg 93%
    02:00 +3°C° 0.2 mm 5 mps 749 mmHg 93%
    03:00 +3°C° 0.2 mm 5 mps 748 mmHg 93%
    04:00 +5°C° 0.6 mm 5 mps 748 mmHg 93%
    05:00 +5°C° 0.6 mm 5 mps 747 mmHg 93%
    06:00 +4°C° 0.6 mm 6 mps 746 mmHg 93%
    07:00 +4°C° 0.3 mm 6 mps 746 mmHg 92%
    08:00 +4°C° 0.3 mm 7 mps 745 mmHg 90%
    09:00 +4°C° 0.3 mm 7 mps 744 mmHg 89%
    10:00 +4°C° 1 mm 7 mps 744 mmHg 88%
    11:00 +4°C° 1 mm 7 mps 743 mmHg 86%
    12:00 +5°C° 1 mm 6 mps 743 mmHg 85%
    13:00 +5°C° 0.3 mm 6 mps 742 mmHg 84%
    14:00 +6°C° 0.3 mm 5 mps 742 mmHg 83%
    15:00 +6°C° 0.3 mm 5 mps 742 mmHg 82%
    16:00 +5°C° 0.1 mm 5 mps 742 mmHg 84%
    17:00 +5°C° 0.1 mm 4 mps 742 mmHg 86%
    18:00 +4°C° 0.1 mm 4 mps 743 mmHg 88%
    19:00 +4°C° 0 mm 3 mps 743 mmHg 90%
    20:00 +4°C° 0 mm 2 mps 743 mmHg 92%
    21:00 +4°C° 0 mm 2 mps 743 mmHg 94%
    22:00 +3°C° 0 mm 2 mps 743 mmHg 94%
    23:00 +4°C° 0 mm 1 mps 743 mmHg 94%
    Show more